ARG1230 SACO-SAZS

Flight info

Callsign ARG1230
Flight time 1h 8m
Altitude 38000
Route ALDEX1C ALDEX UT685 MOCHO UW44 CHATO CHATO1Q
Aircraft B737/M-SDE2E3FGHIRWXY/LB1

Departure

Time 2026-04-29 01:26
Airport Ingeniero Aeronáutico Ambrosio L.V. Taravella International Airport (SACO)

Arrival

Time 2026-04-29 02:35
Airport Teniente Luis Candelaria International Airport (SAZS)
Time Latitude Longitude Altitude Speed Heading
2026-04-29 01:01 -31.31615 -64.21164 1613 ft 0 kts 270°
2026-04-29 01:16 -31.31615 -64.21159 1613 ft 2 kts 275°
2026-04-29 01:17 -31.31617 -64.21142 1613 ft 2 kts 267°
2026-04-29 01:17 -31.31616 -64.21125 1613 ft 2 kts 270°
2026-04-29 01:17 -31.31617 -64.21109 1613 ft 1 kts 270°
2026-04-29 01:17 -31.31614 -64.21101 1613 ft 1 kts 209°
2026-04-29 01:18 -31.31603 -64.21100 1613 ft 2 kts 167°
2026-04-29 01:18 -31.31595 -64.21101 1613 ft 0 kts 180°
2026-04-29 01:23 -31.31614 -64.21101 1613 ft 9 kts 179°
2026-04-29 01:23 -31.31701 -64.21101 1613 ft 10 kts 179°
2026-04-29 01:23 -31.31763 -64.21066 1613 ft 11 kts 133°
2026-04-29 01:23 -31.31852 -64.21027 1613 ft 16 kts 179°
2026-04-29 01:24 -31.31984 -64.21026 1613 ft 22 kts 178°
2026-04-29 01:24 -31.32154 -64.21024 1613 ft 25 kts 180°
2026-04-29 01:24 -31.32264 -64.21022 1613 ft 16 kts 178°
2026-04-29 01:24 -31.32357 -64.21020 1613 ft 11 kts 179°
2026-04-29 01:25 -31.32431 -64.20969 1613 ft 14 kts 123°
2026-04-29 01:25 -31.32418 -64.20869 1613 ft 14 kts 53°
2026-04-29 01:25 -31.32386 -64.20830 1613 ft 9 kts 34°
2026-04-29 01:25 -31.32170 -64.20814 1613 ft 67 kts
2026-04-29 01:26 -31.31455 -64.20824 1614 ft 137 kts 359°
2026-04-29 01:26 -31.30367 -64.20844 1883 ft 170 kts
2026-04-29 01:26 -31.29122 -64.20851 2516 ft 189 kts
2026-04-29 01:26 -31.27733 -64.20812 3181 ft 208 kts
2026-04-29 01:27 -31.26288 -64.20793 4018 ft 212 kts 355°
2026-04-29 01:27 -31.24937 -64.21324 4946 ft 212 kts 328°
2026-04-29 01:27 -31.23876 -64.22675 5404 ft 239 kts 301°
2026-04-29 01:27 -31.23507 -64.24618 5993 ft 262 kts 270°
2026-04-29 01:28 -31.23933 -64.26756 6591 ft 284 kts 250°
2026-04-29 01:28 -31.24838 -64.28835 7518 ft 295 kts 240°
2026-04-29 01:28 -31.26221 -64.30547 8698 ft 297 kts 220°
2026-04-29 01:28 -31.27797 -64.32053 9787 ft 295 kts 231°
2026-04-29 01:29 -31.28757 -64.34119 10785 ft 289 kts 258°
2026-04-29 01:29 -31.29159 -64.36494 11279 ft 311 kts 260°
2026-04-29 01:29 -31.29901 -64.38929 11836 ft 332 kts 248°
2026-04-29 01:29 -31.30946 -64.41357 12736 ft 340 kts 246°
2026-04-29 01:30 -31.32033 -64.43855 13684 ft 346 kts 246°
2026-04-29 01:30 -31.33121 -64.46330 14616 ft 350 kts 246°
2026-04-29 01:30 -31.34248 -64.48853 15540 ft 354 kts 246°
2026-04-29 01:30 -31.35388 -64.51391 16436 ft 358 kts 246°
2026-04-29 01:31 -31.36558 -64.53987 17318 ft 361 kts 246°
2026-04-29 01:31 -31.37727 -64.56580 18163 ft 365 kts 246°
2026-04-29 01:31 -31.38910 -64.59202 18985 ft 368 kts 246°
2026-04-29 01:31 -31.40115 -64.61871 19790 ft 372 kts 246°
2026-04-29 01:32 -31.41305 -64.64509 20555 ft 375 kts 246°
2026-04-29 01:32 -31.42543 -64.67252 21333 ft 378 kts 246°
2026-04-29 01:32 -31.43764 -64.69960 22064 ft 382 kts 246°
2026-04-29 01:32 -31.45004 -64.72714 22778 ft 385 kts 247°
2026-04-29 01:33 -31.46249 -64.75478 23465 ft 388 kts 247°
2026-04-29 01:33 -31.47508 -64.78277 24135 ft 391 kts 247°
2026-04-29 01:33 -31.48766 -64.81076 24772 ft 394 kts 247°
2026-04-29 01:33 -31.50046 -64.83926 25381 ft 398 kts 246°
2026-04-29 01:34 -31.51338 -64.86802 25984 ft 401 kts 246°
2026-04-29 01:34 -31.52633 -64.89689 26571 ft 404 kts 246°
2026-04-29 01:34 -31.53951 -64.92629 27149 ft 407 kts 246°
2026-04-29 01:34 -31.55266 -64.95566 27705 ft 410 kts 245°
2026-04-29 01:35 -31.56585 -64.98512 28242 ft 412 kts 245°
2026-04-29 01:35 -31.57921 -65.01500 28763 ft 415 kts 245°
2026-04-29 01:35 -31.59248 -65.04470 29255 ft 418 kts 244°
2026-04-29 01:35 -31.60602 -65.07500 29763 ft 420 kts 244°
2026-04-29 01:36 -31.61961 -65.10548 30249 ft 423 kts 244°
2026-04-29 01:36 -31.63315 -65.13582 30710 ft 425 kts 244°
2026-04-29 01:36 -31.64838 -65.16594 31152 ft 429 kts 237°
2026-04-29 01:36 -31.66689 -65.19308 31659 ft 431 kts 229°
2026-04-29 01:37 -31.68892 -65.21613 32415 ft 427 kts 220°
2026-04-29 01:37 -31.71367 -65.23548 33037 ft 426 kts 214°
2026-04-29 01:37 -31.73894 -65.25316 33618 ft 423 kts 213°
2026-04-29 01:37 -31.76394 -65.27076 34156 ft 420 kts 214°
2026-04-29 01:38 -31.78861 -65.28844 34593 ft 420 kts 214°
2026-04-29 01:38 -31.81349 -65.30626 35030 ft 419 kts 214°
2026-04-29 01:38 -31.83839 -65.32400 35451 ft 418 kts 214°
2026-04-29 01:38 -31.86298 -65.34148 35848 ft 417 kts 214°
2026-04-29 01:39 -31.88773 -65.35911 36183 ft 417 kts 214°
2026-04-29 01:39 -31.97836 -65.42373 37346 ft 417 kts 214°
2026-04-29 01:39 -32.12620 -65.52940 38014 ft 421 kts 214°
2026-04-29 01:39 -32.27642 -65.63698 38060 ft 421 kts 214°
2026-04-29 01:40 -32.57377 -65.85119 38002 ft 416 kts 214°
2026-04-29 01:40 -32.87003 -66.06652 37966 ft 416 kts 214°
2026-04-29 01:41 -33.16495 -66.28248 37965 ft 417 kts 212°
2026-04-29 01:41 -33.46035 -66.50040 37966 ft 417 kts 212°
2026-04-29 01:42 -33.73256 -66.70303 37965 ft 417 kts 213°
2026-04-29 01:42 -34.02648 -66.92322 37966 ft 417 kts 213°
2026-04-29 01:43 -34.25815 -67.09828 37934 ft 401 kts 212°
2026-04-29 01:43 -34.36723 -67.18108 37918 ft 388 kts 211°
2026-04-29 01:43 -34.50134 -67.28313 37911 ft 376 kts 211°
2026-04-29 01:44 -34.76724 -67.48676 37912 ft 381 kts 211°
2026-04-29 01:44 -35.03680 -67.69490 37911 ft 386 kts 211°
2026-04-29 01:45 -35.30885 -67.90654 37912 ft 386 kts 211°
2026-04-29 01:45 -35.57772 -68.11741 37912 ft 384 kts 211°
2026-04-29 01:46 -35.84755 -68.33084 37950 ft 384 kts 211°
2026-04-29 01:46 -36.11531 -68.54415 37969 ft 384 kts 211°
2026-04-29 01:47 -36.38507 -68.76122 37966 ft 383 kts 212°
2026-04-29 01:47 -36.65167 -68.97695 37967 ft 385 kts 212°
2026-04-29 01:48 -36.92317 -69.19930 37964 ft 392 kts 213°
2026-04-29 01:48 -37.17419 -69.40579 37967 ft 394 kts 212°
2026-04-29 01:49 -37.44750 -69.63336 37969 ft 394 kts 212°
2026-04-29 01:49 -37.63994 -69.79414 37864 ft 395 kts 213°
2026-04-29 01:50 -37.68565 -69.83267 37825 ft 395 kts 213°
2026-04-29 01:50 -37.73136 -69.87118 37759 ft 396 kts 213°
2026-04-29 01:51 -37.77693 -69.90964 37695 ft 394 kts 213°
2026-04-29 01:51 -37.82242 -69.94807 37695 ft 394 kts 213°
2026-04-29 01:52 -37.86832 -69.98689 37696 ft 396 kts 213°
2026-04-29 01:52 -37.91398 -70.02557 37695 ft 398 kts 213°
2026-04-29 01:53 -37.95965 -70.06433 37696 ft 397 kts 213°
2026-04-29 01:53 -38.00546 -70.10326 37702 ft 397 kts 213°
2026-04-29 01:54 -38.05123 -70.14220 37715 ft 397 kts 213°
2026-04-29 01:54 -38.09708 -70.18128 37728 ft 397 kts 213°
2026-04-29 01:55 -38.14288 -70.22038 37741 ft 397 kts 213°
2026-04-29 01:55 -38.18863 -70.25948 37754 ft 397 kts 213°
2026-04-29 01:56 -38.23425 -70.29855 37767 ft 397 kts 213°
2026-04-29 01:56 -38.28099 -70.33511 37776 ft 396 kts 206°
2026-04-29 01:57 -38.33338 -70.35673 37777 ft 399 kts 194°
2026-04-29 01:57 -38.38737 -70.37189 37776 ft 399 kts 195°
2026-04-29 01:58 -38.41462 -70.38001 37590 ft 402 kts 194°
2026-04-29 01:58 -38.44166 -70.38791 37243 ft 402 kts 194°
2026-04-29 01:58 -38.46881 -70.39571 36892 ft 399 kts 194°
2026-04-29 01:58 -38.49566 -70.40341 36543 ft 395 kts 194°
2026-04-29 01:59 -38.52237 -70.41110 36194 ft 394 kts 194°
2026-04-29 01:59 -38.54894 -70.41875 35846 ft 394 kts 194°
2026-04-29 01:59 -38.57590 -70.42651 35497 ft 398 kts 193°
2026-04-29 01:59 -38.60271 -70.43428 35148 ft 398 kts 193°
2026-04-29 02:00 -38.62969 -70.44203 34796 ft 398 kts 193°
2026-04-29 02:00 -38.65667 -70.44973 34445 ft 397 kts 193°
2026-04-29 02:00 -38.68343 -70.45739 34095 ft 397 kts 193°
2026-04-29 02:00 -38.71053 -70.46518 33745 ft 401 kts 193°
2026-04-29 02:01 -38.73757 -70.47295 33395 ft 403 kts 193°
2026-04-29 02:01 -38.76500 -70.48083 33043 ft 404 kts 193°
2026-04-29 02:01 -38.79224 -70.48867 32695 ft 407 kts 192°
2026-04-29 02:01 -38.81954 -70.49654 32325 ft 390 kts 192°
2026-04-29 02:02 -38.84528 -70.50395 31987 ft 377 kts 192°
2026-04-29 02:02 -38.87050 -70.51123 31638 ft 370 kts 192°
2026-04-29 02:02 -38.89537 -70.51841 31280 ft 364 kts 192°
2026-04-29 02:02 -38.91995 -70.52551 30902 ft 360 kts 191°
2026-04-29 02:03 -38.94411 -70.53250 30527 ft 356 kts 191°
2026-04-29 02:03 -38.96785 -70.53937 30155 ft 352 kts 191°
2026-04-29 02:03 -38.99169 -70.54627 29777 ft 349 kts 190°
2026-04-29 02:03 -39.01587 -70.55325 29413 ft 368 kts 190°
2026-04-29 02:04 -39.04105 -70.56053 29030 ft 374 kts 189°
2026-04-29 02:04 -39.06623 -70.56786 28653 ft 371 kts 189°
2026-04-29 02:04 -39.09113 -70.57511 28278 ft 367 kts 189°
2026-04-29 02:04 -39.11390 -70.58173 27933 ft 365 kts 189°
2026-04-29 02:05 -39.13864 -70.58892 27556 ft 364 kts 189°
2026-04-29 02:05 -39.16292 -70.59598 27186 ft 363 kts 189°
2026-04-29 02:05 -39.18780 -70.60322 26806 ft 363 kts 188°
2026-04-29 02:05 -39.21213 -70.61030 26434 ft 363 kts 188°
2026-04-29 02:06 -39.23684 -70.61751 26056 ft 363 kts 188°
2026-04-29 02:06 -39.26136 -70.62466 25681 ft 362 kts 188°
2026-04-29 02:06 -39.28600 -70.63186 25303 ft 362 kts 188°
2026-04-29 02:06 -39.31048 -70.63901 24927 ft 361 kts 188°
2026-04-29 02:07 -39.33489 -70.64615 24551 ft 361 kts 188°
2026-04-29 02:07 -39.35936 -70.65331 24174 ft 360 kts 189°
2026-04-29 02:07 -39.38366 -70.66042 23799 ft 360 kts 189°
2026-04-29 02:07 -39.40802 -70.66756 23423 ft 360 kts 189°
2026-04-29 02:08 -39.43236 -70.67470 23046 ft 359 kts 189°
2026-04-29 02:08 -39.45660 -70.68182 22671 ft 358 kts 189°
2026-04-29 02:08 -39.48085 -70.68893 22294 ft 358 kts 189°
2026-04-29 02:08 -39.50504 -70.69604 21918 ft 357 kts 189°
2026-04-29 02:09 -39.52891 -70.70306 21547 ft 356 kts 189°
2026-04-29 02:09 -39.55314 -70.71020 21168 ft 355 kts 189°
2026-04-29 02:09 -39.57701 -70.71722 20795 ft 355 kts 189°
2026-04-29 02:09 -39.60085 -70.72425 20421 ft 354 kts 189°
2026-04-29 02:10 -39.62494 -70.73135 20042 ft 353 kts 189°
2026-04-29 02:10 -39.64859 -70.73834 19816 ft 348 kts 189°
2026-04-29 02:10 -39.67220 -70.74532 19836 ft 349 kts 189°
2026-04-29 02:10 -39.69600 -70.75233 19795 ft 356 kts 189°
2026-04-29 02:11 -39.72057 -70.75954 19551 ft 378 kts 190°
2026-04-29 02:11 -39.74716 -70.76736 19302 ft 408 kts 190°
2026-04-29 02:11 -39.77547 -70.77573 19043 ft 421 kts 190°
2026-04-29 02:11 -39.80379 -70.78418 18788 ft 418 kts 191°
2026-04-29 02:12 -39.83200 -70.79259 18536 ft 416 kts 191°
2026-04-29 02:12 -39.86011 -70.80095 18285 ft 414 kts 191°
2026-04-29 02:12 -39.88817 -70.80930 18034 ft 413 kts 191°
2026-04-29 02:12 -39.91603 -70.81759 17783 ft 411 kts 191°
2026-04-29 02:13 -39.94373 -70.82584 17532 ft 408 kts 191°
2026-04-29 02:13 -39.97102 -70.83398 17284 ft 406 kts 191°
2026-04-29 02:13 -39.99876 -70.84225 17031 ft 404 kts 191°
2026-04-29 02:13 -40.02570 -70.85030 16783 ft 402 kts 191°
2026-04-29 02:14 -40.05315 -70.85849 16530 ft 400 kts 191°
2026-04-29 02:14 -40.08020 -70.86658 16279 ft 398 kts 191°
2026-04-29 02:14 -40.10720 -70.87466 16028 ft 396 kts 191°
2026-04-29 02:14 -40.12996 -70.88147 15815 ft 395 kts 191°
2026-04-29 02:15 -40.15673 -70.88949 15563 ft 393 kts 191°
2026-04-29 02:15 -40.18298 -70.89736 15315 ft 391 kts 191°
2026-04-29 02:15 -40.20939 -70.90529 15064 ft 389 kts 191°
2026-04-29 02:15 -40.23591 -70.91325 14812 ft 387 kts 191°
2026-04-29 02:16 -40.26186 -70.92105 14563 ft 385 kts 191°
2026-04-29 02:16 -40.28778 -70.92885 14313 ft 383 kts 191°
2026-04-29 02:16 -40.31365 -70.93664 14062 ft 381 kts 191°
2026-04-29 02:16 -40.33931 -70.94437 13813 ft 379 kts 191°
2026-04-29 02:17 -40.36498 -70.95211 13562 ft 377 kts 191°
2026-04-29 02:17 -40.39052 -70.95982 13311 ft 376 kts 191°
2026-04-29 02:17 -40.41574 -70.96743 13076 ft 373 kts 191°
2026-04-29 02:17 -40.44082 -70.97501 13045 ft 369 kts 191°
2026-04-29 02:18 -40.46612 -70.98266 13049 ft 372 kts 191°
2026-04-29 02:18 -40.49117 -70.99024 13046 ft 371 kts 191°
2026-04-29 02:18 -40.51622 -70.99783 13037 ft 370 kts 191°
2026-04-29 02:18 -40.54113 -71.00538 13029 ft 369 kts 191°
2026-04-29 02:19 -40.56605 -71.01294 13020 ft 369 kts 191°
2026-04-29 02:19 -40.59111 -71.02055 13012 ft 368 kts 191°
2026-04-29 02:19 -40.61589 -71.02808 13003 ft 367 kts 192°
2026-04-29 02:19 -40.64087 -71.03567 12995 ft 366 kts 192°
2026-04-29 02:20 -40.66557 -71.04319 12993 ft 365 kts 192°
2026-04-29 02:20 -40.69035 -71.05074 12993 ft 366 kts 192°
2026-04-29 02:20 -40.71498 -71.05824 12993 ft 366 kts 192°
2026-04-29 02:20 -40.73972 -71.06579 12993 ft 366 kts 192°
2026-04-29 02:21 -40.76442 -71.07333 12993 ft 366 kts 192°
2026-04-29 02:21 -40.78939 -71.07945 12990 ft 365 kts 183°
2026-04-29 02:21 -40.81444 -71.07658 12994 ft 363 kts 165°
2026-04-29 02:21 -40.83757 -71.06360 12994 ft 364 kts 149°
2026-04-29 02:22 -40.85703 -71.04268 12992 ft 363 kts 132°
2026-04-29 02:22 -40.87057 -71.01423 12998 ft 367 kts 117°
2026-04-29 02:22 -40.88284 -70.98515 12842 ft 368 kts 123°
2026-04-29 02:22 -40.89755 -70.95734 12586 ft 365 kts 125°
2026-04-29 02:23 -40.91265 -70.93031 12314 ft 364 kts 128°
2026-04-29 02:23 -40.92942 -70.90643 11771 ft 351 kts 137°
2026-04-29 02:23 -40.94749 -70.88570 11224 ft 332 kts 137°
2026-04-29 02:23 -40.96452 -70.86696 10837 ft 313 kts 141°
2026-04-29 02:24 -40.98246 -70.85100 10589 ft 305 kts 148°
2026-04-29 02:24 -41.00050 -70.83765 10454 ft 292 kts 150°
2026-04-29 02:24 -41.01807 -70.82570 10310 ft 271 kts 155°
2026-04-29 02:25 -41.05112 -70.80923 10053 ft 245 kts 163°
2026-04-29 02:25 -41.06755 -70.80302 9906 ft 246 kts 169°
2026-04-29 02:25 -41.08424 -70.79829 9639 ft 244 kts 170°
2026-04-29 02:25 -41.10097 -70.79433 9321 ft 253 kts 175°
2026-04-29 02:26 -41.11846 -70.79233 8989 ft 254 kts 178°
2026-04-29 02:26 -41.13596 -70.79105 8663 ft 250 kts 180°
2026-04-29 02:26 -41.15319 -70.79108 8518 ft 247 kts 186°
2026-04-29 02:26 -41.17034 -70.79322 8316 ft 249 kts 188°
2026-04-29 02:27 -41.18733 -70.79559 8210 ft 241 kts 191°
2026-04-29 02:27 -41.20317 -70.79966 8137 ft 222 kts 197°
2026-04-29 02:27 -41.21808 -70.80465 8081 ft 218 kts 197°
2026-04-29 02:27 -41.23209 -70.80971 7989 ft 201 kts 200°
2026-04-29 02:28 -41.24482 -70.81564 7760 ft 190 kts 205°
2026-04-29 02:28 -41.25664 -70.82189 7556 ft 177 kts 206°
2026-04-29 02:28 -41.26667 -70.83057 7414 ft 172 kts 236°
2026-04-29 02:28 -41.26885 -70.84547 7324 ft 165 kts 286°
2026-04-29 02:29 -41.26139 -70.85722 7304 ft 182 kts 321°
2026-04-29 02:29 -41.25147 -70.86764 7283 ft 179 kts 305°
2026-04-29 02:29 -41.24693 -70.88290 7330 ft 176 kts 281°
2026-04-29 02:29 -41.24290 -70.89880 7295 ft 182 kts 297°
2026-04-29 02:30 -41.23680 -70.91335 7295 ft 183 kts 294°
2026-04-29 02:30 -41.23167 -70.92868 7292 ft 181 kts 292°
2026-04-29 02:30 -41.22633 -70.94395 7286 ft 178 kts 293°
2026-04-29 02:30 -41.22089 -70.95845 6923 ft 174 kts 294°
2026-04-29 02:31 -41.21569 -70.97265 6391 ft 170 kts 292°
2026-04-29 02:31 -41.21078 -70.98654 5870 ft 166 kts 292°
2026-04-29 02:31 -41.20593 -71.00022 5356 ft 164 kts 292°
2026-04-29 02:31 -41.20133 -71.01364 4971 ft 153 kts 291°
2026-04-29 02:32 -41.19707 -71.02557 4737 ft 133 kts 291°
2026-04-29 02:32 -41.19334 -71.03642 4591 ft 128 kts 291°
2026-04-29 02:32 -41.18958 -71.04730 4394 ft 127 kts 292°
2026-04-29 02:32 -41.18596 -71.05780 4255 ft 129 kts 292°
2026-04-29 02:33 -41.18223 -71.06853 4054 ft 126 kts 291°
2026-04-29 02:33 -41.17866 -71.07877 3909 ft 125 kts 291°
2026-04-29 02:33 -41.17497 -71.08940 3699 ft 124 kts 293°
2026-04-29 02:33 -41.17153 -71.09946 3569 ft 122 kts 292°
2026-04-29 02:34 -41.16779 -71.10995 3385 ft 126 kts 292°
2026-04-29 02:34 -41.16426 -71.12031 3225 ft 124 kts 292°
2026-04-29 02:34 -41.16045 -71.13097 3092 ft 126 kts 293°
2026-04-29 02:34 -41.15688 -71.14113 2870 ft 122 kts 290°
2026-04-29 02:35 -41.15336 -71.15115 2782 ft 108 kts 290°
2026-04-29 02:35 -41.15128 -71.15752 2781 ft 43 kts 295°
2026-04-29 02:35 -41.15037 -71.16019 2781 ft 31 kts 293°
2026-04-29 02:35 -41.14949 -71.16245 2781 ft 23 kts 299°
2026-04-29 02:36 -41.14883 -71.16335 2781 ft 6 kts 12°
2026-04-29 02:36 -41.14806 -71.16286 2781 ft 8 kts 26°
2026-04-29 02:36 -41.14768 -71.16256 2781 ft 14 kts 40°
2026-04-29 02:36 -41.14751 -71.16232 2781 ft 0 kts 52°
2026-04-29 02:37 -41.14742 -71.16214 2781 ft 11 kts 54°
2026-04-29 02:37 -41.14699 -71.16139 2781 ft 0 kts 53°